Regional Weather Roundup
Issued by NWS

Home | Current Version | Previous Version | Graphics & Text | Print | Product List | Glossary On
Versions: 1 2 3 4 5 6 7 8 9 10 11 12 13 14 15 16 17 18 19 20 21 22 23 24 25 26 27 28 29 30 31 32 33 34 35 36 37 38 39 40 41 42 43 44 45 46 47 48 49 50
000
ASUS43 KIND 010809
RWRIN

WEATHER ROUNDUP FOR INDIANA
NATIONAL WEATHER SERVICE INDIANAPOLIS IN
400 AM EDT TUE SEP 01 2015

NOTE: "FAIR" INDICATES FEW OR NO CLOUDS BELOW 12,000 FEET WITH NO
SIGNIFICANT WEATHER AND/OR OBSTRUCTIONS TO VISIBILITY.

* - STATION DOES NOT REPORT WEATHER SUCH AS PRECIPITATION OR FOG.

+ - STATION NOT QUALITY CONTROLLED BY THE NATIONAL WEATHER SERVICE.
    USE DATA WITH CAUTION...ESPECIALLY DEWPOINT AND RELATIVE
    HUMIDITY OBSERVATIONS.

INZ001>003-010>013-019-020-010900-
NORTHWEST INDIANA

CITY           SKY/WX    TMP DP  RH WIND       PRES   REMARKS
GARY /AIRPORT/ CLEAR     73  68  87 CALM      30.05F
KNOX *+        CLEAR     68  68 100 S5        30.07S
LA PORTE +     FOG      N/A N/A N/A CALM      30.08S VSB 1/4
MICHIGAN CITY+ CLEAR     68  68 100 S3        30.07S
MONTICELLO +   CLEAR     70  70 100 S3        30.07F
RENSSELAER +   PTCLDY    68  68 100 SE3       30.07F
VALPARAISO     CLEAR     69  67  93 CALM      30.07F

$$

LMZ046-743>745-010900-
SOUTHERN LAKE MICHIGAN

STATION/POSITION TIME  TEMP    WIND        PRES    WAVE
                       AIR SEA DIR/SP/G            HT
                 (UTC) (F)     (DEG/KT/KT) (MB)    (FT)
BURNS HARBOR     0700   73     190/  8/ 11 1017.9F
MICHIGAN CITY    0700   75     160/ 10/ 13   N/A
5NW MICH CITY    0800   73 72  210/  6/  8   N/A     1

$$

INZ004-005-014>016-021>024-010900-
NORTH CENTRAL INDIANA

CITY           SKY/WX    TMP DP  RH WIND       PRES   REMARKS
GOSHEN         CLEAR     68  66  93 CALM      30.08S FOG
LOGANSPORT +   MOCLDY    68  63  83 S3        30.09F FOG
ROCHESTER +    CLEAR     73  70  88 SW5       30.08F
SOUTH BEND     CLEAR     68  67  96 CALM      30.08S FOG
WARSAW +       CLEAR     68  68 100 CALM      30.09S FOG

$$

INZ006>009-017-018-025>027-010900-
NORTHEAST INDIANA

CITY           SKY/WX    TMP DP  RH WIND       PRES   REMARKS
ANGOLA *+      CLOUDY    66  57  72 CALM      30.09S VSB 1/4
AUBURN +       CLEAR     68  64  88 CALM      30.09S FOG
FORT WAYNE     PTCLDY    69  66  90 SW5       30.09F
HUNTINGTON +   CLEAR     69  65  86 CALM      30.09S

$$

INZ028-029-035-036-043>045-051>053-010900-
WEST CENTRAL INDIANA

CITY           SKY/WX    TMP DP  RH WIND       PRES   REMARKS
CRAWFORDSVL +  CLEAR     63  63 100 CALM      30.10S FOG
GREENCASTLE +  CLEAR     66  63  88 CALM      30.11S FOG
LAFAYETTE      MOCLDY    68  66  93 CALM      30.08S
TERRE HAUTE    PTCLDY    66  64  93 CALM      30.09S

$$

INZ030>032-037>040-046>048-054>057-064-065-010900-
CENTRAL INDIANA

CITY           SKY/WX    TMP DP  RH WIND       PRES   REMARKS
FRANKFORT +    PTCLDY   N/A N/A N/A CALM      30.11S HAZE
GREENWOOD *+   PTCLDY    66  64  94 CALM      30.11
INDIANAPOLIS   MOCLDY    72  67  84 CALM      30.09S
-EAGLE CREEK   PTCLDY    69  68  96 CALM      30.10S
KOKOMO *+      CLEAR     66  63  88 CALM      30.09F
MARION +       CLEAR     65  61  84 CALM      30.11S HAZE
MT COMFORT *+  PTCLDY    66 N/A N/A CALM      30.11S
SHELBYVILLE    CLEAR     67  64  90 CALM      30.10S FOG
ZIONSVILLE +   PTCLDY    67  64  90 CALM      30.11S FOG

$$

INZ033-034-041-042-049-050-058-059-010900-
EAST CENTRAL INDIANA

CITY           SKY/WX    TMP DP  RH WIND       PRES   REMARKS
MUNCIE         CLEAR     66  65  96 SW3       30.10F

$$

INZ060-061-067>069-081>083-085>088-010900-
SOUTHWEST INDIANA

CITY           SKY/WX    TMP DP  RH WIND       PRES   REMARKS
EVANSVILLE     CLEAR     70  67  90 CALM      30.10S
HUNTINGBURG *+ CLEAR     66  63  88 CALM      30.11S
WASHINGTON +   CLEAR     68  64  87 CALM      30.10S

$$

INZ062-063-066-070>080-084-089>092-010900-
SOUTH CENTRAL AND SOUTHEAST INDIANA

CITY           SKY/WX    TMP DP  RH WIND       PRES   REMARKS
BLOOMINGTON    PTCLDY    67  65  93 CALM      30.11S
MADISON *+       N/A     64  63  94 CALM      30.13S VSB 1
NORTH VERNON + CLEAR     68  68 100 CALM      30.12S
SEYMOUR +        N/A     66  66 100 CALM      30.11R FOG

$$




USA.gov is the U.S. government's official web portal to all federal, state and local government web resources and services.